Welcome to the New NWS' Forecast!
Most changes are behind the scenes, but click here for differences you might notice.

Regional Weather Roundup (RWR)

Issued by Gray - Portland, ME (GYX)

                            
062 
ASUS41 KGYX 200205
RWRGYX
WEATHER ROUNDUP FOR MAINE AND NEW HAMPSHIRE
NATIONAL WEATHER SERVICE GRAY ME
1000 PM EDT THU JUL 19 2018

MEZ002-005-006-010-012-015-018-020-021-024-026-027-029-200300-
MAINE
  
CITY           SKY/WX    TMP DP  RH WIND       PRES   REMARKS
PORTLAND       FAIR      66  51  58 SW6       30.10R                  
SANFORD        FAIR      55  54  96 CALM      30.12R                  
BAR HARBOR     FAIR      61  53  75 S3        30.11R                  
WISCASSET      FAIR      59  54  83 CALM      30.12R                  
ROCKLAND       FAIR      60  54  80 W3        30.11R                  
FRYEBURG       FAIR      60  59  96 CALM      30.11R                  
LEWISTONAUBURN FAIR      63  53  70 CALM      30.11R                  
AUGUSTA        FAIR      65  50  58 S5        30.11R                  
WATERVILLE     FAIR      64  53  67 SW3       30.08R                  
BANGOR         FAIR      64  54  69 SW3       30.09R                  
GREENVILLE       N/A     62  51  67 CALM      30.10R                  
MILLINOCKET    FAIR      63  55  75 CALM      30.08R                  
HOULTON        FAIR      54  54 100 S3        30.04R                  
PRESQUE ISLE   FAIR      60  54  80 S3        30.06R                  
FRENCHVILLE    FAIR      69  47  45 W9        30.04R                  
CARIBOU        FAIR      67  49  52 W3        30.04R                  
$$

NHZ002-005-008-009-011-012-014-200300-
NEW HAMPSHIRE
  
CITY           SKY/WX    TMP DP  RH WIND       PRES   REMARKS
PORTSMOUTH     PTCLDY    65  50  58 S6        30.10R                  
ROCHESTER      FAIR      63  53  70 S3        30.11R                  
NASHUA         FAIR      66  53  63 CALM      30.12R                  
MANCHESTER     FAIR      69  50  50 S5        30.10R                  
CONCORD        FAIR      67  56  67 SE5       30.11R                  
LACONIA        FAIR      64  56  75 CALM      30.11R                  
PLYMOUTH       FAIR      58  56  91 CALM      30.11R                  
BERLIN         FAIR      56  53  90 CALM      30.14R                  
WHITEFIELD     FAIR      58  55  90 CALM      30.13R                  
JAFFREY        FAIR      61  59  93 CALM      30.14R                  
KEENE          FAIR      61  55  81 CALM      30.13R                  
LEBANON        FAIR      61  52  72 SE3       30.11R                  
MT WASHINGTON  PTCLDY    48  43  81 NW22        N/A                   
$$

VTZ005-007-008-200300-
VERMONT
  
CITY           SKY/WX    TMP DP  RH WIND       PRES   REMARKS
ST JOHNSBURY     N/A     62  55  77 MISG      30.11R                  
MONTPELIER     FAIR      60  55  83 CALM      30.16R                  
BURLINGTON     FAIR      71  56  58 E6        30.09R                  
$$

MAZ007-012-024-CTZ003-RIZ002-NYZ038-NYZ072-200300-
SOUTHERN NEW ENGLAND AND NY
  
CITY           SKY/WX    TMP DP  RH WIND       PRES   REMARKS
BOSTON         FAIR      68  54  60 S8        30.12R                  
NANTUCKET      FAIR      60  57  89 CALM      30.14R                  
PROVIDENCE     FAIR      67  54  63 SW6       30.13R                  
HARTFORD       FAIR      71  56  58 S7        30.11R                  
ALBANY         FAIR      71  53  52 CALM      30.11R                  
NEW YORK CITY  FAIR      75  60  59 S9        30.11R                  
$$

ANZ081-ANZ082-ANZ150-NHZ014-MEZ023>029-200300-
COASTAL MARINE OBSERVATIONS
  
STATION/POSITION TIME  TEMP    WIND        PRES    WAVE
                       AIR SEA DIR/SP/G            HT/PER
                 (UTC) (F)     (DEG/KT/KT) (MB)    (FT/S)
MOUNT DESERT ROC 0200   61     250/ 16/ 16 1019.5R
MATINICUS ROCK   0100   63     230/ 13/ 14 1018.5R
ISLE OF SHOALS   0100   67     200/ 12/ 13 1018.5R
JEFFREYS LEDGE   0136      68                N/A     2/ 8
$$

.............KEY..............
   WCI - WIND CHILL
   TC  - TEMPERATURE IN CELSIUS
   VSB - VISIBILITY IN MILES
   HX  - HEAT INDEX
   FAIR- INDICATES FEW OR NO CLOUDS BELOW 12,000 FT, WITH NO 
         SIGNIFICANT WEATHER AND/OR OBSTRUCTIONS TO VISIBILITY.